Regional Weather Roundup
Issued by NWS

Home | Current Version | Previous Version | Graphics & Text | Print | Product List | Glossary On
Versions: 1 2 3 4 5 6 7 8 9 10 11 12 13 14 15 16 17 18 19 20 21 22 23 24 25 26 27 28
000
ASUS45 KGTF 021610
RWRMT
MONTANA HOURLY WEATHER ROUNDUP
NATIONAL WEATHER SERVICE GREAT FALLS MT
1000 AM MDT SAT MAY 02 2015

NOTE: "FAIR" INDICATES FEW OR NO CLOUDS BELOW 12000 FEET WITH NO
SIGNIFICANT WEATHER AND/OR OBSTRUCTIONS TO VISIBILITY.

MTZ001>007-043-021700-
WEST OF THE DIVIDE

CITY           SKY/WX    TMP DP  RH WIND       PRES   REMARKS
KALISPELL      MOSUNNY   58  35  42 NE6       29.83R
MISSOULA       MOSUNNY   55  31  39 E3        29.88S
BUTTE          SUNNY     57  21  24 W7        29.90S
DEER LODGE       N/A     61  30  31 N12       29.89F
EUREKA           N/A     52  32  46 NW3       29.87
LIBBY            N/A     57  23  26 N10       29.86R
$$

MTZ008-052>055-021700-
SOUTHWEST MONTANA

CITY           SKY/WX    TMP DP  RH WIND       PRES   REMARKS
BOZEMAN        CLOUDY    52  33  48 CALM      29.86S
DILLON         PTSUNNY   53  27  36 SW7       29.89S
$$

MTZ009-010-012-014-046-048-049-054-021700-
EAST SLOPES AND CENTRAL MONTANA

CITY           SKY/WX    TMP DP  RH WIND       PRES   REMARKS
CUT BANK       MOSUNNY   47  34  60 N18       29.83R
GREAT FALLS    SUNNY     65  25  22 W21       29.75S
MALMSTROM AFB  SUNNY     65  25  21 W21G31    29.75S
HELENA         SUNNY     60  29  30 N6        29.82F
$$

MTZ011-013-016-021-045-047-050-051-021700-
NORTH CENTRAL MONTANA

CITY           SKY/WX    TMP DP  RH WIND       PRES   REMARKS
HAVRE          MOSUNNY   56  37  49 NE6       29.75S
LEWISTOWN      MOSUNNY   66  26  22 W14       29.78S
CHINOOK          N/A     55  36  47 CALM      29.76S
FORT BENTON      N/A     55  34  44 NW7       29.76S
$$

MTZ017>020-022>042-056>058-061-062-021700-
EASTERN PLAINS

CITY           SKY/WX    TMP DP  RH WIND       PRES   REMARKS
BAKER          PTSUNNY   65  35  33 W16       29.74R
BILLINGS       PTSUNNY   62  31  31 SW16      29.79F
GLASGOW        MOSUNNY   60  40  47 VRB3      29.71R
JORDAN           N/A     68  30  24 W13       29.72S
LIVINGSTON     MOSUNNY   67  25  20 SW24G33   29.82S
MILES CITY     MOSUNNY   67  36  31 SW9       29.74S
SIDNEY         PTSUNNY   63  39  42 SE7       29.67F
WOLF POINT     MOSUNNY   64  40  41 S5        29.69S
BIG TIMBER       N/A     63  27  25 W6        29.83S
FORSYTH          N/A     70  28  21 W9        29.75R
PLENTYWOOD       N/A     63  36  36 N16       29.68R
POPLAR           N/A     64  36  34 N6        29.69S
$$

REGIONAL REPORTS...DAKOTAS

CITY           SKY/WX    TMP DP  RH WIND       PRES   REMARKS
WILLISTON      CLOUDY    63  37  38 SW5       29.66S
MINOT          PTSUNNY   69  37  30 SW12      29.62S
DICKINSON      CLOUDY    67  39  35 W16       29.66F
BEACH          FAIR      64  36  34 W15       29.71S
CROSBY         FAIR      64  37  36 N16       29.66S
WATFORD CITY   FAIR      66  34  30 W10       29.64F
BISMARCK       MOSUNNY   73  44  35 S12       29.67F
GRAND FORKS    PTSUNNY   77  39  25 SW24      29.69F
FARGO          MOSUNNY   76  43  30 S20       29.76F
BUFFALO SD       N/A     73  40  30 W23       29.67S
RAPID CITY     SUNNY     73  48  41 S9        29.77F
$$

REGIONAL REPORTS...WYOMING/IDAHO/WASHINGTON

CITY           SKY/WX    TMP DP  RH WIND       PRES   REMARKS
GILLETTE       MOSUNNY   71  30  21 W12       29.83R
SHERIDAN       CLOUDY    63  34  33 CALM      29.84S
BUFFALO WY     PTSUNNY   67  26  21 N10       29.87R
CODY           MOSUNNY   64  23  20 SW8       29.89S
YELLOWSTONE LA   N/A     52  15  23 VRB7      30.04F
IDAHO FALLS    SUNNY     60  34  37 SW6       29.94F
SALMON         MOSUNNY   48  30  49 CALM      29.90S
BOISE          SUNNY     60  26  27 CALM      29.90R
SPOKANE        MOSUNNY   54  26  34 NW10      29.94R
$$

REGIONAL REPORTS...ALBERTA

CITY           SKY/WX    TMP DP  RH WIND       PRES   REMARKS
EDMONTON       MOSUNNY   46  27  46 W14G21    29.81S
CALGARY        PTSUNNY   41  28  60 N21G29    29.88R
LETHBRIDGE     LGT RAIN  43  37  81 W12       29.87R
MEDICINE HAT   LGT RAIN  46  41  81 W9        29.82S
$$

REGIONAL REPORTS...SASKATCHEWAN

CITY           SKY/WX    TMP DP  RH WIND       PRES   REMARKS
SWIFT CURRENT  PTSUNNY   48  37  66 W10       29.74S
REGINA         PTSUNNY   55  39  54 NW16      29.70R
SASKATOON      MOSUNNY   54  36  50 NW9       29.71F
$$



USA.gov is the U.S. government's official web portal to all federal, state and local government web resources and services.